This is the latest recevied weather packets stored in our database for station/object KJ4AJP. If no packets are shown the sender has not sent any weather packets the latest 10 day(s).
| Time | Temp. | Humidity | Pressure | Rain* | Wind** | Luminosity | Snow |
|---|---|---|---|---|---|---|---|
| 1777895104 | 15.56° C | 69% | 1012.3 hPa | 0 mm | - | 41 W/m² | - |
| 1777894801 | 15.56° C | 69% | 1012.2 hPa | 0 mm | - | 33 W/m² | - |
| 1777894498 | 15.56° C | 70% | 1012.2 hPa | 0 mm | - | 26 W/m² | - |
| 1777894195 | 15.56° C | 70% | 1012.4 hPa | 0 mm | - | 20 W/m² | - |
| 1777893892 | 15.56° C | 69% | 1012.1 hPa | 0 mm | - | 15 W/m² | - |
| 1777893588 | 15.56° C | 69% | 1012.1 hPa | 0 mm | - | 11 W/m² | - |
| 1777893285 | 15.56° C | 69% | 1012.1 hPa | 0 mm | - | 7 W/m² | - |
| 1777892981 | 15° C | 69% | 1012.1 hPa | 0 mm | - | 5 W/m² | - |
| 1777892678 | 15° C | 69% | 1012 hPa | 0 mm | - | 3 W/m² | - |
| 1777892374 | 15.56° C | 69% | 1011.9 hPa | 0 mm | - | 2 W/m² | - |
| 1777892070 | 15° C | 68% | 1011.7 hPa | 0 mm | - | 1 W/m² | - |
| 1777891768 | 15.56° C | 68% | 1011.8 hPa | 0 mm | - | 0 W/m² | - |
| 1777891464 | 15.56° C | 68% | 1012 hPa | 0 mm | - | 0 W/m² | - |
| 1777891161 | 15.56° C | 67% | 1012 hPa | 0 mm | - | 0 W/m² | - |
| 1777890860 | 15.56° C | 67% | 1011.8 hPa | 0 mm | - | 0 W/m² | - |
| 1777890557 | 15.56° C | 66% | 1011.8 hPa | 0 mm | - | 0 W/m² | - |
| 1777890252 | 15.56° C | 66% | 1012.1 hPa | 0 mm | - | 0 W/m² | - |
| 1777889949 | 15.56° C | 66% | 1011.9 hPa | 0 mm | - | 0 W/m² | - |
| 1777889647 | 15° C | 67% | 1012.1 hPa | 0 mm | - | 0 W/m² | - |
| 1777889343 | 15° C | 67% | 1011.9 hPa | 0 mm | - | 0 W/m² | - |
| 1777889041 | 15° C | 67% | 1011.9 hPa | 0 mm | - | 0 W/m² | - |
| 1777888738 | 15° C | 66% | 1011.9 hPa | 0 mm | - | 0 W/m² | - |
| 1777888434 | 15° C | 66% | 1012 hPa | 0 mm | - | 0 W/m² | - |
| 1777888130 | 15° C | 66% | 1012.1 hPa | 0 mm | - | 0 W/m² | - |
| 1777887828 | 15° C | 66% | 1012 hPa | 0 mm | - | 0 W/m² | - |
* Rain latest hour (hover to see other rain measurements)
** Current wind speed in m/s (hover to see current wind gust speed)